SCP
0 0 0 0 0 0 0 0 0 0 0 0 0 0 0 0 0 -0 -0 0 0 0 0 0 0 1 0 0 -0 0 -0 -0 -0 -0 -0 -0 -0 -0 -0 -0 -0 -0 -0
0 0 0 0 0 0 0 0 0 0 0 0 0 0 0 0 0 0 -0 0 0 0 0 0 0 1 0 0 0 -0 -0 -0 -0 -0 -0 -0 -0 -0 -0 -0 -0 -0 -0
0 0 0 0 0 0 0 0 0 0 0 0 0 0 0 0 0 -0 0 0 0 0 0 0 0 0 0 -0 -0 -0 -0 -0 -0 -0 -0 -0 -0 -0 -0 -0 -0 -0 -0
0 0 0 0 0 0 0 0 0 0 0 0 0 0 0 0 0 0 0 0 0 0 0 0 0 -0 0 -0 -0 -0 -0 -0 -0 -0 -0 -0 -0 -0 -0 -0 -0 -0 -0
0 0 0 0 0 0 0 0 0 0 0 0 0 0 0 0 0 0 0 0 0 0 0 0 0 -0 0 0 -0 -0 -0 -0 -0 -0 -0 -0 -0 -0 -0 -0 -0 -0 -0
0 0 0 0 0 0 0 0 0 0 0 0 0 0 0 0 0 0 0 0 0 0 0 0 0 -0 0 0 -0 -0 -0 -0 -0 -0 -0 -0 -0 -0 -0 -0 -0 -0 -0
0 0 0 0 0 0 0 0 0 0 0 0 0 0 0 0 0 0 0 0 0 0 0 0 0 0 -0 -0 0 0 -0 -0 -0 -0 -0 -0 -0 -0 -0 -0 -0 -0 -0
0 0 0 0 0 0 0 0 0 0 0 0 0 0 0 0 0 0 0 0 0 0 0 0 0 0 0 0 0 0 0 -0 -0 -0 -0 -0 -0 -0 -0 -0 -0 -0 -0
0 0 0 0 0 0 0 0 0 0 0 0 0 0 0 0 0 0 0 0 0 0 -0 -0 -0 0 0 0 0 0 0 -0 -0 -0 -0 -0 -0 -0 -0 -0 -0 -0 -0
0 0 0 0 0 0 0 0 0 0 0 0 0 0 -0 -0 0 0 0 0 0 0 -0 0 0 0 0 0 0 0 0 -0 -0 -0 -0 -0 -0 -0 -0 -0 -0 -0 -0
0 0 0 0 0 0 0 0 0 0 0 0 0 -0 0 0 0 0 0 0 0 0 0 0 0 0 0 0 0 0 -0 -0 -0 -0 -0 -0 -0 -0 -0 -0 -0 -0 -0
0 0 0 0 0 0 0 0 0 0 0 -0 -0 -0 -0 -0 0 0 0 0 0 0 0 0 0 0 0 0 0 -0 -0 -0 -0 -0 -0 -0 -0 -0 -0 -0 -0 -0 -0
0 0 0 0 0 0 0 0 0 0 0 -0 -0 -0 0 0 0 0 0 0 0 0 0 -0 0 0 0 0 0 -0 -0 -0 -0 -0 -0 -0 -0 -0 -0 -0 -0 -0 -0
0 0 0 0 0 0 0 0 0 0 0 -0 -0 0 0 0 0 0 0 -0 0 0 0 0 -0 -0 0 0 0 -0 -0 -0 -0 -0 -0 -0 -0 -0 -0 -0 -0 -0 0
0 0 0 0 0 0 0 0 0 0 0 0 -0 0 0 0 0 -0 -0 0 0 0 0 -0 0 0 -0 0 0 0 0 -0 -0 -0 -0 -0 -0 -0 -0 -0 -0 0 0
0 0 0 0 0 0 0 0 0 0 0 0 0 0 0 0 0 0 0 0 0 -0 -0 0 0 0 0 0 0 0 0 -0 -0 -0 -0 -0 -0 -0 -0 -0 -0 0 0
0 0 0 0 0 0 0 0 0 0 0 0 0 0 0 0 0 0 0 0 0 0 -0 0 0 0 0 0 0 0 0 0 0 0 -0 -0 -0 -0 -0 -0 -0 0 0
0 0 0 0 0 0 0 0 0 0 0 0 0 0 0 0 0 0 0 0 0 0 0 -0 0 0 0 0 0 0 0 0 0 0 0 0 0 0 0 0 0 0 0
0 0 0 0 0 0 0 0 0 0 0 0 0 0 0 0 0 0 0 0 0 0 0 0 0 0 0 0 0 0 0 0 0 0 0 0 0 0 0 0 0 0 0
0 0 0 0 0 0 0 0 0 0 0 0 0 0 0 0 0 0 0 0 0 0 0 0 0 0 0 0 0 0 0 0 0 0 0 0 0 0 0 0 0 0 0
0 0 0 0 0 0 0 0 0 0 0 0 0 0 0 0 0 0 0 0 0 0 0 0 0 0 0 0 0 0 0 0 0 0 0 0 0 0 0 0 0 0 0
0 0 0 0 0 0 0 0 0 0 0 0 0 0 0 0 0 0 0 0 0 0 0 0 0 0 0 0 0 0 0 0 0 0 0 0 0 0 0 0 0 0 0
0 0 0 0 0 0 0 0 0 0 0 0 0 0 0 0 0 0 0 0 0 0 0 0 0 0 0 0 0 0 0 0 0 0 0 0 0 0 0 0 0 0 0
0 0 0 0 0 0 0 0 0 0 0 0 0 0 0 0 0 0 0 0 0 0 0 0 0 0 0 0 0 0 0 0 0 0 0 0 0 0 0 0 0 0 0
0 0 0 0 0 0 0 0 0 0 0 0 0 0 0 0 0 0 0 0 0 0 0 0 0 0 0 0 0 0 0 0 0 0 0 0 0 0 0 0 0 0 0
0 0 0 0 0 0 0 0 0 0 0 0 0 0 0 0 0 0 0 0 0 0 0 0 0 0 0 0 0 0 0 0 0 0 0 0 0 0 0 0 0 0 0
Wind_Speed_500mb
20 23 24 26 26 25 34 34 36 34 37 39 37 33 28 20 19 17 16 16 21 17 29 45 44 28 32 46 53 53 55 56 45 38 38 40 40 36 43 42 38 30 25
18 21 22 24 27 27 29 26 29 32 32 36 37 37 26 24 22 22 13 12 13 13 25 41 49 27 46 60 57 62 61 54 53 48 47 45 45 49 41 32 27 29 25
16 18 21 27 24 24 25 19 31 32 33 35 37 36 32 32 26 19 21 12 13 16 20 27 36 26 52 74 72 64 62 61 57 52 48 41 43 38 29 26 26 29 22
13 15 23 24 21 23 25 27 31 33 40 44 43 40 33 28 22 19 21 22 34 31 29 26 11 9 62 76 69 73 68 60 56 49 46 45 44 36 34 35 32 25 25
11 14 24 24 17 22 19 25 30 31 34 44 48 42 36 33 31 28 31 31 30 34 33 28 20 33 65 66 82 76 69 59 52 49 49 44 38 31 32 33 26 29 29
9 13 22 21 16 18 16 24 26 28 25 26 44 48 39 36 37 40 40 37 37 36 35 28 39 47 25 67 86 72 62 55 56 54 48 39 32 32 35 27 26 31 37
7 12 20 19 16 16 21 21 21 24 29 22 32 26 42 39 36 47 43 45 47 38 33 34 41 32 49 77 63 65 63 59 50 42 38 36 31 33 27 32 31 39 33
6 9 15 16 14 14 17 18 24 23 31 31 30 25 27 45 45 56 52 52 46 43 42 44 50 73 77 78 71 63 57 49 45 45 35 37 33 37 31 27 43 32 30
6 6 12 13 10 11 16 16 22 23 28 32 32 22 15 14 35 58 55 57 52 60 87 82 72 91 81 72 62 58 56 53 46 47 43 38 36 29 28 44 33 24 35
6 4 10 12 7 8 12 13 19 21 24 19 31 27 30 26 17 38 73 74 72 64 58 93 87 79 69 70 67 59 56 55 51 45 38 29 25 37 42 41 22 40 41
9 3 7 9 4 8 10 14 15 22 22 19 26 20 25 44 56 60 44 72 86 89 79 73 73 75 69 64 61 56 52 47 41 32 26 41 38 42 34 22 39 41 30
12 6 4 7 5 8 13 13 14 19 22 20 16 18 31 43 51 64 75 80 85 90 82 67 62 64 64 58 52 47 40 35 30 43 42 40 34 25 19 36 44 33 22
14 10 4 5 5 7 11 11 10 13 18 14 11 17 23 31 57 73 80 86 86 82 77 68 61 63 61 53 45 38 30 29 37 34 29 25 22 29 44 46 33 25 33
15 13 7 3 5 8 10 10 8 11 16 17 14 16 29 48 52 65 74 74 75 68 72 65 64 59 50 47 40 33 34 26 28 25 17 12 17 36 37 33 26 23 29
15 16 11 5 5 8 8 6 8 12 17 19 19 20 30 51 68 68 71 71 81 67 58 61 62 48 42 39 34 30 31 24 23 19 14 12 21 30 28 26 25 25 26
16 18 15 9 3 7 9 4 7 16 20 22 24 27 30 47 50 57 63 54 59 74 68 52 54 47 36 32 27 23 24 22 22 17 16 16 12 18 25 26 28 27 27
18 20 18 13 7 6 11 6 11 17 25 25 23 28 34 45 49 53 36 42 52 64 83 73 64 53 43 36 33 30 24 19 18 13 13 17 10 12 21 25 25 27 25
19 20 19 16 11 10 15 13 14 15 23 23 25 29 32 36 44 48 41 21 48 60 75 85 66 56 48 41 32 26 22 20 13 10 11 13 11 9 11 14 17 19 21
20 20 19 18 16 13 15 19 16 14 21 24 22 28 30 34 34 34 40 23 47 67 71 75 74 64 56 48 42 34 27 21 14 3 7 5 7 2 10 15 13 12 12
22 21 20 19 19 16 18 23 21 15 18 24 18 24 31 34 31 34 31 29 38 63 71 71 72 69 57 49 39 35 33 26 19 12 10 6 4 5 12 15 14 15 13
24 23 21 21 22 20 20 27 27 23 18 19 22 25 31 32 30 22 20 28 38 56 71 70 66 65 60 55 50 44 40 29 22 15 12 11 8 7 12 16 17 21 18
27 25 23 22 23 23 19 28 30 28 25 22 22 26 29 29 31 29 26 19 24 34 58 75 75 67 63 57 53 39 40 35 26 23 16 15 16 9 11 18 20 23 21
28 27 27 26 25 26 24 23 28 31 34 30 27 29 29 29 33 33 35 29 28 31 42 48 63 60 64 33 41 35 41 40 32 18 24 25 22 16 12 15 19 24 24
30 28 28 27 27 27 29 29 28 30 30 31 33 32 32 33 35 36 40 38 33 32 37 49 59 56 48 43 46 41 48 46 38 28 28 29 26 20 14 17 19 24 28
33 31 31 31 30 30 31 35 33 31 31 31 31 30 33 36 35 39 42 44 41 38 36 40 46 49 58 40 45 45 47 49 48 37 33 30 27 28 23 20 21 23 27
34 33 32 32 30 29 28 34 39 37 35 33 31 29 29 31 31 39 43 46 48 39 44 42 38 40 50 47 40 38 44 51 52 46 40 38 35 31 20 19 22 27 28
Wind_Direction_500mb
16 17 13 8 357 5 24 23 20 17 7 1 358 349 353 355 342 317 255 266 263 243 200 194 188 192 191 174 170 157 161 152 147 153 153 149 139 135 128 128 132 125 122
19 20 13 5 3 19 19 25 14 20 20 15 4 1 356 354 348 356 326 242 264 217 187 189 189 183 188 182 165 160 160 153 151 150 147 143 140 137 140 143 140 130 131
26 23 15 23 15 29 12 38 25 20 29 22 23 19 20 11 14 28 31 76 88 125 149 170 184 197 183 165 156 157 151 148 148 148 147 146 152 147 147 154 145 139 127
33 27 25 22 26 31 24 34 33 29 33 29 27 24 15 17 22 45 59 93 104 106 119 137 135 218 166 157 155 151 146 147 146 148 148 144 148 148 136 139 139 137 120
43 27 28 28 35 35 21 11 28 23 26 45 35 28 23 33 46 63 71 96 102 110 111 109 85 103 164 156 150 146 144 145 145 146 148 146 142 147 142 143 145 127 114
55 27 36 29 37 43 44 25 30 20 28 44 44 38 45 57 64 82 87 99 110 112 114 110 98 116 168 139 136 137 138 138 139 142 144 142 140 146 144 151 125 120 111
73 34 41 41 42 55 41 23 44 34 35 44 56 43 62 65 70 77 88 95 103 111 112 116 114 135 156 143 133 136 133 137 138 136 137 140 138 133 128 125 126 110 112
101 41 40 39 53 64 52 44 54 40 37 48 68 42 44 65 80 86 94 93 95 103 117 121 124 116 118 127 130 130 133 135 132 132 131 132 127 128 126 125 110 129 125
139 57 40 27 61 75 63 56 64 46 54 41 67 68 62 24 64 91 98 96 100 112 111 118 120 126 122 123 125 127 127 125 124 122 125 129 133 137 128 113 129 121 118
165 92 47 47 78 95 85 70 74 66 66 57 86 74 90 90 66 77 96 103 110 108 108 116 116 120 122 124 125 124 125 126 128 130 133 141 143 124 114 128 134 116 124
173 141 58 45 71 112 90 87 89 84 87 93 92 93 115 114 120 108 87 93 115 109 109 112 119 122 125 128 128 127 126 129 133 133 126 110 111 122 133 139 125 132 140
180 173 89 44 73 129 111 97 98 103 106 105 111 97 137 130 127 124 113 106 106 111 114 114 121 124 125 125 124 123 132 136 136 126 125 122 135 142 128 121 136 148 141
182 180 139 57 89 148 137 114 107 127 127 113 104 135 151 128 136 127 126 113 113 115 116 121 128 133 128 127 127 132 131 131 124 130 129 141 153 131 140 144 156 157 142
183 180 165 107 119 156 154 127 126 136 142 129 120 147 146 139 147 150 139 136 123 122 129 125 131 130 132 134 133 134 129 126 119 124 119 128 159 159 162 172 176 172 147
183 184 173 138 110 146 148 139 151 157 161 142 139 143 150 153 146 144 140 140 142 135 128 134 130 140 146 141 134 138 132 123 120 111 100 93 141 160 172 187 188 167 143
190 190 182 174 142 159 172 184 167 162 165 155 160 153 159 166 161 159 154 154 155 154 149 149 149 149 155 155 145 143 139 129 123 121 97 66 105 162 163 144 142 140 128
193 195 191 186 176 159 167 160 141 152 158 159 161 168 173 181 175 174 158 169 173 168 156 157 158 156 168 173 169 165 152 146 131 115 85 53 57 137 144 152 158 147 141
196 195 197 193 184 177 173 161 144 152 156 158 173 174 167 178 190 190 197 182 185 178 166 161 163 166 177 179 182 181 168 158 157 136 123 77 72 130 149 172 187 181 160
199 195 199 198 194 192 178 174 163 160 165 167 168 180 175 175 188 200 206 208 188 185 179 171 171 177 182 185 187 188 189 179 176 201 158 125 71 126 197 200 220 192 186
203 199 200 203 200 197 190 180 177 165 166 175 175 170 178 182 188 192 198 202 189 193 192 187 181 179 187 186 195 202 196 189 195 210 208 234 302 292 229 221 222 206 201
207 206 203 208 205 204 206 193 185 186 172 171 176 167 173 173 183 203 221 214 202 200 199 197 192 189 191 194 197 201 209 203 193 212 224 244 265 272 233 231 222 208 199
211 212 207 209 211 209 214 205 195 197 194 191 189 193 197 201 205 214 213 217 233 224 212 206 203 200 200 206 204 213 212 208 205 219 233 254 260 270 248 230 218 212 214
218 216 215 212 213 213 216 214 206 213 212 211 214 214 211 211 212 215 217 208 218 231 235 226 218 215 210 229 204 220 220 224 221 231 217 235 245 267 270 237 231 224 221
223 223 222 219 217 217 215 220 213 217 221 224 218 219 221 223 226 219 218 216 211 221 223 227 226 228 217 232 220 236 224 221 221 231 226 237 244 258 277 269 247 233 229
223 224 224 223 220 220 219 220 218 219 224 230 234 223 225 225 228 229 227 223 212 212 218 225 231 236 229 243 237 245 240 230 231 239 241 242 254 267 271 276 259 248 236
224 224 227 229 227 226 228 230 226 220 226 232 236 227 232 235 238 228 227 226 219 217 217 210 217 227 230 240 249 252 240 243 236 242 248 239 245 251 263 288 264 251 243
Wind_Speed_850mb
20 23 24 26 26 25 34 34 36 34 37 39 37 33 28 20 19 17 16 16 21 17 29 45 44 28 32 46 53 53 55 56 45 38 38 40 40 36 43 42 38 30 25
18 21 22 24 27 27 29 26 29 32 32 36 37 37 26 24 22 22 13 12 13 13 25 41 49 27 46 60 57 62 61 54 53 48 47 45 45 49 41 32 27 29 25
16 18 21 27 24 24 25 19 31 32 33 35 37 36 32 32 26 19 21 12 13 16 20 27 36 26 52 74 72 64 62 61 57 52 48 41 43 38 29 26 26 29 22
13 15 23 24 21 23 25 27 31 33 40 44 43 40 33 28 22 19 21 22 34 31 29 26 11 9 62 76 69 73 68 60 56 49 46 45 44 36 34 35 32 25 25
11 14 24 24 17 22 19 25 30 31 34 44 48 42 36 33 31 28 31 31 30 34 33 28 20 33 65 66 82 76 69 59 52 49 49 44 38 31 32 33 26 29 29
9 13 22 21 16 18 16 24 26 28 25 26 44 48 39 36 37 40 40 37 37 36 35 28 39 47 25 67 86 72 62 55 56 54 48 39 32 32 35 27 26 31 37
7 12 20 19 16 16 21 21 21 24 29 22 32 26 42 39 36 47 43 45 47 38 33 34 41 32 49 77 63 65 63 59 50 42 38 36 31 33 27 32 31 39 33
6 9 15 16 14 14 17 18 24 23 31 31 30 25 27 45 45 56 52 52 46 43 42 44 50 73 77 78 71 63 57 49 45 45 35 37 33 37 31 27 43 32 30
6 6 12 13 10 11 16 16 22 23 28 32 32 22 15 14 35 58 55 57 52 60 87 82 72 91 81 72 62 58 56 53 46 47 43 38 36 29 28 44 33 24 35
6 4 10 12 7 8 12 13 19 21 24 19 31 27 30 26 17 38 73 74 72 64 58 93 87 79 69 70 67 59 56 55 51 45 38 29 25 37 42 41 22 40 41
9 3 7 9 4 8 10 14 15 22 22 19 26 20 25 44 56 60 44 72 86 89 79 73 73 75 69 64 61 56 52 47 41 32 26 41 38 42 34 22 39 41 30
12 6 4 7 5 8 13 13 14 19 22 20 16 18 31 43 51 64 75 80 85 90 82 67 62 64 64 58 52 47 40 35 30 43 42 40 34 25 19 36 44 33 22
14 10 4 5 5 7 11 11 10 13 18 14 11 17 23 31 57 73 80 86 86 82 77 68 61 63 61 53 45 38 30 29 37 34 29 25 22 29 44 46 33 25 33
15 13 7 3 5 8 10 10 8 11 16 17 14 16 29 48 52 65 74 74 75 68 72 65 64 59 50 47 40 33 34 26 28 25 17 12 17 36 37 33 26 23 29
15 16 11 5 5 8 8 6 8 12 17 19 19 20 30 51 68 68 71 71 81 67 58 61 62 48 42 39 34 30 31 24 23 19 14 12 21 30 28 26 25 25 26
16 18 15 9 3 7 9 4 7 16 20 22 24 27 30 47 50 57 63 54 59 74 68 52 54 47 36 32 27 23 24 22 22 17 16 16 12 18 25 26 28 27 27
18 20 18 13 7 6 11 6 11 17 25 25 23 28 34 45 49 53 36 42 52 64 83 73 64 53 43 36 33 30 24 19 18 13 13 17 10 12 21 25 25 27 25
19 20 19 16 11 10 15 13 14 15 23 23 25 29 32 36 44 48 41 21 48 60 75 85 66 56 48 41 32 26 22 20 13 10 11 13 11 9 11 14 17 19 21
20 20 19 18 16 13 15 19 16 14 21 24 22 28 30 34 34 34 40 23 47 67 71 75 74 64 56 48 42 34 27 21 14 3 7 5 7 2 10 15 13 12 12
22 21 20 19 19 16 18 23 21 15 18 24 18 24 31 34 31 34 31 29 38 63 71 71 72 69 57 49 39 35 33 26 19 12 10 6 4 5 12 15 14 15 13
24 23 21 21 22 20 20 27 27 23 18 19 22 25 31 32 30 22 20 28 38 56 71 70 66 65 60 55 50 44 40 29 22 15 12 11 8 7 12 16 17 21 18
27 25 23 22 23 23 19 28 30 28 25 22 22 26 29 29 31 29 26 19 24 34 58 75 75 67 63 57 53 39 40 35 26 23 16 15 16 9 11 18 20 23 21
28 27 27 26 25 26 24 23 28 31 34 30 27 29 29 29 33 33 35 29 28 31 42 48 63 60 64 33 41 35 41 40 32 18 24 25 22 16 12 15 19 24 24
30 28 28 27 27 27 29 29 28 30 30 31 33 32 32 33 35 36 40 38 33 32 37 49 59 56 48 43 46 41 48 46 38 28 28 29 26 20 14 17 19 24 28
33 31 31 31 30 30 31 35 33 31 31 31 31 30 33 36 35 39 42 44 41 38 36 40 46 49 58 40 45 45 47 49 48 37 33 30 27 28 23 20 21 23 27
34 33 32 32 30 29 28 34 39 37 35 33 31 29 29 31 31 39 43 46 48 39 44 42 38 40 50 47 40 38 44 51 52 46 40 38 35 31 20 19 22 27 28
Wind_Direction_850mb
16 17 13 8 357 5 24 23 20 17 7 1 358 349 353 355 342 317 255 266 263 243 200 194 188 192 191 174 170 157 161 152 147 153 153 149 139 135 128 128 132 125 122
19 20 13 5 3 19 19 25 14 20 20 15 4 1 356 354 348 356 326 242 264 217 187 189 189 183 188 182 165 160 160 153 151 150 147 143 140 137 140 143 140 130 131
26 23 15 23 15 29 12 38 25 20 29 22 23 19 20 11 14 28 31 76 88 125 149 170 184 197 183 165 156 157 151 148 148 148 147 146 152 147 147 154 145 139 127
33 27 25 22 26 31 24 34 33 29 33 29 27 24 15 17 22 45 59 93 104 106 119 137 135 218 166 157 155 151 146 147 146 148 148 144 148 148 136 139 139 137 120
43 27 28 28 35 35 21 11 28 23 26 45 35 28 23 33 46 63 71 96 102 110 111 109 85 103 164 156 150 146 144 145 145 146 148 146 142 147 142 143 145 127 114
55 27 36 29 37 43 44 25 30 20 28 44 44 38 45 57 64 82 87 99 110 112 114 110 98 116 168 139 136 137 138 138 139 142 144 142 140 146 144 151 125 120 111
73 34 41 41 42 55 41 23 44 34 35 44 56 43 62 65 70 77 88 95 103 111 112 116 114 135 156 143 133 136 133 137 138 136 137 140 138 133 128 125 126 110 112
101 41 40 39 53 64 52 44 54 40 37 48 68 42 44 65 80 86 94 93 95 103 117 121 124 116 118 127 130 130 133 135 132 132 131 132 127 128 126 125 110 129 125
139 57 40 27 61 75 63 56 64 46 54 41 67 68 62 24 64 91 98 96 100 112 111 118 120 126 122 123 125 127 127 125 124 122 125 129 133 137 128 113 129 121 118
165 92 47 47 78 95 85 70 74 66 66 57 86 74 90 90 66 77 96 103 110 108 108 116 116 120 122 124 125 124 125 126 128 130 133 141 143 124 114 128 134 116 124
173 141 58 45 71 112 90 87 89 84 87 93 92 93 115 114 120 108 87 93 115 109 109 112 119 122 125 128 128 127 126 129 133 133 126 110 111 122 133 139 125 132 140
180 173 89 44 73 129 111 97 98 103 106 105 111 97 137 130 127 124 113 106 106 111 114 114 121 124 125 125 124 123 132 136 136 126 125 122 135 142 128 121 136 148 141
182 180 139 57 89 148 137 114 107 127 127 113 104 135 151 128 136 127 126 113 113 115 116 121 128 133 128 127 127 132 131 131 124 130 129 141 153 131 140 144 156 157 142
183 180 165 107 119 156 154 127 126 136 142 129 120 147 146 139 147 150 139 136 123 122 129 125 131 130 132 134 133 134 129 126 119 124 119 128 159 159 162 172 176 172 147
183 184 173 138 110 146 148 139 151 157 161 142 139 143 150 153 146 144 140 140 142 135 128 134 130 140 146 141 134 138 132 123 120 111 100 93 141 160 172 187 188 167 143
190 190 182 174 142 159 172 184 167 162 165 155 160 153 159 166 161 159 154 154 155 154 149 149 149 149 155 155 145 143 139 129 123 121 97 66 105 162 163 144 142 140 128
193 195 191 186 176 159 167 160 141 152 158 159 161 168 173 181 175 174 158 169 173 168 156 157 158 156 168 173 169 165 152 146 131 115 85 53 57 137 144 152 158 147 141
196 195 197 193 184 177 173 161 144 152 156 158 173 174 167 178 190 190 197 182 185 178 166 161 163 166 177 179 182 181 168 158 157 136 123 77 72 130 149 172 187 181 160
199 195 199 198 194 192 178 174 163 160 165 167 168 180 175 175 188 200 206 208 188 185 179 171 171 177 182 185 187 188 189 179 176 201 158 125 71 126 197 200 220 192 186
203 199 200 203 200 197 190 180 177 165 166 175 175 170 178 182 188 192 198 202 189 193 192 187 181 179 187 186 195 202 196 189 195 210 208 234 302 292 229 221 222 206 201
207 206 203 208 205 204 206 193 185 186 172 171 176 167 173 173 183 203 221 214 202 200 199 197 192 189 191 194 197 201 209 203 193 212 224 244 265 272 233 231 222 208 199
211 212 207 209 211 209 214 205 195 197 194 191 189 193 197 201 205 214 213 217 233 224 212 206 203 200 200 206 204 213 212 208 205 219 233 254 260 270 248 230 218 212 214
218 216 215 212 213 213 216 214 206 213 212 211 214 214 211 211 212 215 217 208 218 231 235 226 218 215 210 229 204 220 220 224 221 231 217 235 245 267 270 237 231 224 221
223 223 222 219 217 217 215 220 213 217 221 224 218 219 221 223 226 219 218 216 211 221 223 227 226 228 217 232 220 236 224 221 221 231 226 237 244 258 277 269 247 233 229
223 224 224 223 220 220 219 220 218 219 224 230 234 223 225 225 228 229 227 223 212 212 218 225 231 236 229 243 237 245 240 230 231 239 241 242 254 267 271 276 259 248 236
224 224 227 229 227 226 228 230 226 220 226 232 236 227 232 235 238 228 227 226 219 217 217 210 217 227 230 240 249 252 240 243 236 242 248 239 245 251 263 288 264 251 243